Falfurrias, TX

10:50 PM CST on November 18, 2019 (GMT -0600)
Falfurrias

Weather History for KBKS - August, 2019

Change the Weather History Date:

Friday, August 9, 2019

  Actual Average (WUND) Record (WUND)
Temperature  
Mean Temperature 93 °F -  
Max Temperature 104 °F - - (-1)
Min Temperature 82 °F - - (-1)
Cooling Degree Days 28    
Growing Degree Days 43 (Base 50)    
Moisture  
Dew Point 74 °F    
Average Humidity 61    
Maximum Humidity 84    
Minimum Humidity 30    
Precipitation  
Precipitation 0.00 in - - ()
Sea Level Pressure  
Sea Level Pressure 29.88 in    
Wind  
Wind Speed 11 mph ()    
Max Wind Speed 20 mph    
Max Gust Speed 30 mph    
Visibility 9.9 miles    
Events      
Averages and records for this station are not official NWS values.
T = Trace of Precipitation, MM = Missing Value Source: Averaged Metar Reports

Daily Weather History Graph

Daily Weather History Graph

Search for Another Location

Airport or City:

Astronomy

Aug. 09, 2019 Rise Set
Actual Time 7:00 AM CDT 8:15 PM CDT
Civil Twilight 6:35 AM CDT 8:39 PM CDT
Nautical Twilight 6:06 AM CDT 9:09 PM CDT
Astronomical Twilight 5:36 AM CDT 9:39 PM CDT
Moon 3:51 PM CDT (8/9) 2:01 AM CDT (8/9)
Length of Visible Light 14h 03m
Length of Day
13h 14m
Waxing Gibbous, 70% of the Moon is Illuminated
Aug 9
Waxing Gibbous
Aug 15
Full
Aug 23
Last Quarter
Aug 30
New
Sep 5
First Quarter

Hourly Weather History & Observations

Time (CDT) Temp. Heat Index Dew Point Humidity Pressure Visibility Wind Dir Wind Speed Gust Speed Precip Events Conditions
12:15 AM 85.1 °F 96.2 °F 77.5 °F 78% 29.89 in 10.0 mi SE 11.5 mph 17.3 mph N/A   Clear
12:35 AM 84.7 °F 95.6 °F 77.7 °F 79% 29.88 in 10.0 mi SSE 12.7 mph - N/A   Clear
12:55 AM 84.6 °F 95.5 °F 77.9 °F 80% 29.88 in 10.0 mi SE 10.4 mph - N/A   Clear
1:15 AM 84.6 °F 95.5 °F 77.7 °F 80% 29.88 in 10.0 mi SE 10.4 mph - N/A   Mostly Cloudy
1:35 AM 84.7 °F 95.6 °F 77.5 °F 79% 29.88 in 10.0 mi SSE 9.2 mph - N/A   Overcast
1:55 AM 84.7 °F 96.1 °F 77.9 °F 80% 29.87 in 10.0 mi SE 8.1 mph - N/A   Overcast
2:15 AM 84.6 °F 95.5 °F 77.9 °F 80% 29.87 in 10.0 mi SE 8.1 mph - N/A   Overcast
2:35 AM 84.6 °F 95.5 °F 77.9 °F 80% 29.87 in 10.0 mi SE 10.4 mph - N/A   Overcast
2:55 AM 84.2 °F 95.3 °F 78.1 °F 82% 29.87 in 10.0 mi SSE 9.2 mph - N/A   Mostly Cloudy
3:15 AM 83.7 °F 94.1 °F 77.9 °F 83% 29.87 in 10.0 mi SSE 9.2 mph - N/A   Mostly Cloudy
3:35 AM 83.5 °F 93.6 °F 77.9 °F 83% 29.86 in 10.0 mi SSE 8.1 mph - N/A   Scattered Clouds
3:55 AM 83.3 °F 93.5 °F 77.9 °F 84% 29.87 in 10.0 mi SSE 5.8 mph - N/A   Scattered Clouds
4:15 AM 83.3 °F 93.1 °F 77.7 °F 83% 29.86 in 10.0 mi SE 6.9 mph - N/A   Scattered Clouds
4:35 AM 83.5 °F 93.3 °F 77.5 °F 82% 29.86 in 10.0 mi SE 8.1 mph - N/A   Mostly Cloudy
4:55 AM 83.8 °F 93.9 °F 77.4 °F 81% 29.87 in 10.0 mi SE 9.2 mph - N/A   Mostly Cloudy
5:15 AM 84.2 °F 94.1 °F 77.2 °F 79% 29.87 in 10.0 mi SSE 10.4 mph - N/A   Mostly Cloudy
5:35 AM 84.2 °F 94.1 °F 77.2 °F 79% 29.87 in 10.0 mi SE 11.5 mph - N/A   Mostly Cloudy
5:55 AM 83.8 °F 93.5 °F 77.2 °F 80% 29.88 in 10.0 mi SSE 11.5 mph - N/A   Mostly Cloudy
6:15 AM 83.8 °F 93.9 °F 77.4 °F 81% 29.88 in 10.0 mi SE 8.1 mph - N/A   Mostly Cloudy
6:35 AM 83.5 °F 93.3 °F 77.4 °F 82% 29.89 in 10.0 mi SE 9.2 mph - N/A   Mostly Cloudy
6:55 AM 83.5 °F 93.3 °F 77.4 °F 82% 29.90 in 10.0 mi SE 6.9 mph - N/A   Scattered Clouds
7:15 AM 83.5 °F 93.3 °F 77.4 °F 82% 29.90 in 10.0 mi ESE 6.9 mph - N/A   Mostly Cloudy
7:35 AM 82.4 °F 90.9 °F 77.0 °F 84% 29.90 in 10.0 mi ESE 6.9 mph - N/A   Scattered Clouds
7:55 AM 82.6 °F 91.4 °F 77.2 °F 84% 29.92 in 7.0 mi ESE 5.8 mph - N/A   Mostly Cloudy
8:15 AM 83.7 °F 93.4 °F 77.4 °F 81% 29.92 in 7.0 mi SE 8.1 mph - N/A   Scattered Clouds
8:35 AM 85.3 °F 96.7 °F 77.5 °F 78% 29.92 in 10.0 mi SSE 10.4 mph - N/A   Clear
8:55 AM 86.5 °F 98.3 °F 77.4 °F 74% 29.93 in 10.0 mi SE 11.5 mph - N/A   Scattered Clouds
9:15 AM 87.3 °F 98.8 °F 77.0 °F 71% 29.94 in 10.0 mi SSE 12.7 mph 17.3 mph N/A   Mostly Cloudy
9:35 AM 88.2 °F 99.0 °F 75.9 °F 67% 29.94 in 10.0 mi SSE 13.8 mph - N/A   Mostly Cloudy
9:55 AM 89.2 °F 99.0 °F 74.8 °F 62% 29.95 in 10.0 mi SSE 13.8 mph 20.7 mph N/A   Scattered Clouds
10:15 AM 92.7 °F 103.0 °F 74.5 °F 55% 29.95 in 10.0 mi SSE 15.0 mph 21.9 mph N/A   Scattered Clouds
10:35 AM 92.1 °F 101.1 °F 73.4 °F 54% 29.95 in 10.0 mi SSE 18.4 mph 24.2 mph N/A   Scattered Clouds
10:55 AM 93.0 °F 101.3 °F 72.7 °F 51% 29.95 in 10.0 mi South 11.5 mph 18.4 mph N/A   Scattered Clouds
11:15 AM 94.5 °F 102.0 °F 71.6 °F 47% 29.95 in 10.0 mi SSE 12.7 mph 21.9 mph N/A   Clear
11:35 AM 96.1 °F 103.5 °F 71.2 °F 44% 29.95 in 10.0 mi SSE 16.1 mph 24.2 mph N/A   Clear
11:55 AM 97.0 °F 104.1 °F 70.7 °F 42% 29.94 in 10.0 mi South 16.1 mph 24.2 mph N/A   Scattered Clouds
12:15 PM 97.2 °F 103.8 °F 70.2 °F 41% 29.94 in 10.0 mi SSE 13.8 mph 24.2 mph N/A   Clear
12:35 PM 98.2 °F 104.1 °F 68.9 °F 38% 29.93 in 10.0 mi South 17.3 mph 24.2 mph N/A   Clear
12:55 PM 99.7 °F 106.3 °F 69.4 °F 37% 29.91 in 10.0 mi SE 16.1 mph 21.9 mph N/A   Clear
1:15 PM 99.5 °F 106.6 °F 69.4 °F 38% 29.91 in 10.0 mi SSE 18.4 mph 25.3 mph N/A   Clear
1:35 PM 100.8 °F 106.3 °F 67.6 °F 34% 29.91 in 10.0 mi South 19.6 mph 25.3 mph N/A   Clear
1:55 PM 102.2 °F 107.7 °F 67.5 °F 32% 29.90 in 10.0 mi SSE 17.3 mph - N/A   Clear
2:15 PM 102.6 °F 108.4 °F 67.6 °F 32% 29.89 in 10.0 mi SSE 18.4 mph 29.9 mph N/A   Clear
2:35 PM 101.3 °F 107.4 °F 68.0 °F 34% 29.88 in 10.0 mi ESE 13.8 mph 24.2 mph N/A   Clear
2:55 PM 104.2 °F 110.0 °F 67.1 °F 30% 29.87 in 10.0 mi South 13.8 mph 25.3 mph N/A   Clear
3:15 PM 103.5 °F 109.4 °F 67.5 °F 31% 29.86 in 10.0 mi SE 15.0 mph 23.0 mph N/A   Clear
3:35 PM 103.8 °F 109.3 °F 67.1 °F 30% 29.85 in 10.0 mi SSE 12.7 mph 20.7 mph N/A   Clear
3:55 PM 102.9 °F 108.3 °F 66.7 °F 31% 29.85 in 10.0 mi SSE 15.0 mph 26.5 mph N/A   Clear
4:15 PM 103.6 °F 109.7 °F 67.3 °F 31% 29.85 in 10.0 mi SE 16.1 mph 24.2 mph N/A   Clear
4:35 PM 102.7 °F 108.7 °F 67.8 °F 32% 29.84 in 10.0 mi SSE 13.8 mph 19.6 mph N/A   Clear
4:55 PM 103.8 °F 110.9 °F 68.2 °F 32% 29.83 in 10.0 mi SSE 12.7 mph 21.9 mph N/A   Clear
5:15 PM 103.3 °F 109.0 °F 66.9 °F 31% 29.83 in 10.0 mi SSE 13.8 mph 24.2 mph N/A   Clear
5:35 PM 103.3 °F 109.0 °F 67.1 °F 31% 29.83 in 10.0 mi SE 15.0 mph 19.6 mph N/A   Clear
5:55 PM 102.2 °F 106.9 °F 66.4 °F 31% 29.83 in 10.0 mi SE 17.3 mph 24.2 mph N/A   Clear
6:15 PM 100.0 °F 111.0 °F 73.2 °F 42% 29.82 in 10.0 mi SE 17.3 mph 24.2 mph N/A   Clear
6:35 PM 98.8 °F 109.7 °F 73.2 °F 44% 29.82 in 10.0 mi SE 17.3 mph 20.7 mph N/A   Clear
6:55 PM 97.7 °F 109.5 °F 74.3 °F 47% 29.82 in 10.0 mi ESE 12.7 mph 20.7 mph N/A   Clear
7:15 PM 95.9 °F 108.9 °F 75.6 °F 52% 29.82 in 10.0 mi ESE 17.3 mph 23.0 mph N/A   Clear
7:35 PM 94.6 °F 107.2 °F 75.4 °F 54% 29.83 in 10.0 mi SE 11.5 mph 21.9 mph N/A   Clear
7:55 PM 93.2 °F 105.0 °F 75.4 °F 56% 29.83 in 10.0 mi ESE 11.5 mph 19.6 mph N/A   Clear
8:15 PM 91.4 °F 103.8 °F 76.1 °F 61% 29.84 in 10.0 mi ESE 10.4 mph - N/A   Clear
8:35 PM 90.3 °F 102.9 °F 76.5 °F 64% 29.85 in 10.0 mi ESE 11.5 mph 17.3 mph N/A   Clear
8:55 PM 88.9 °F 100.9 °F 76.5 °F 67% 29.85 in 10.0 mi ESE 9.2 mph - N/A   Clear
9:15 PM 88.2 °F 99.5 °F 76.5 °F 68% 29.86 in 10.0 mi ESE 8.1 mph - N/A   Clear
9:35 PM 87.8 °F 99.1 °F 76.3 °F 69% 29.86 in 10.0 mi ESE 8.1 mph - N/A   Clear
9:55 PM 87.1 °F 98.3 °F 76.5 °F 71% 29.88 in 10.0 mi ESE 10.4 mph 16.1 mph N/A   Clear
10:15 PM 86.5 °F 97.4 °F 76.6 °F 72% 29.88 in 10.0 mi ESE 10.4 mph - N/A   Clear
10:35 PM 86.0 °F 96.9 °F 77.0 °F 74% 29.89 in 10.0 mi ESE 10.4 mph - N/A   Clear
10:55 PM 85.3 °F 95.8 °F 77.0 °F 76% 29.89 in 10.0 mi ESE 9.2 mph - N/A   Clear
11:15 PM 84.7 °F 94.8 °F 76.8 °F 77% 29.90 in 10.0 mi ESE 6.9 mph - N/A   Clear
11:35 PM 84.6 °F 94.3 °F 76.8 °F 77% 29.91 in 10.0 mi SE 8.1 mph - N/A   Clear
11:55 PM 84.2 °F 93.8 °F 76.6 °F 78% 29.91 in 10.0 mi SE 6.9 mph - N/A   Clear